Weather in Bautzen

Germany     51°10′50″N   14°25′40″E
temp.,
°C
wind,
m/s
gust,
m/s
humid.,
%
clouds,
%
prec.,
mm/h
press.,
hPa
HPBL,
m
16 may, sun
sun1623:00+10s368966 0.2 1005101
02:00+10wsw3589100 0.4 1005103
05:00+8ssw3491100 0.0 100568
08:00+11sw4882100 0.0 10061077
11:00+13wsw686799 0.1 10061395
14:00+17w565157 0.1 10051928
17:00+15sw457071 1.3 10041043
20:00+12ssw22821 2.4 100418
17 may, mon
mon1723:00+9s2286100 0.0 100414
02:00+9sw258889 0.0 1004106
05:00+10wsw1192100 0.8 100440
08:00+11wsw4884100 0.8 1005655
11:00+13wsw5676100 1.0 10051167
14:00+14wsw5670100 2.1 10051426
17:00+14w7979100 1.0 10061098
20:00+11w6128786 1.9 1007648
18 may, tue
tue1823:00+8wsw5139015 0.0 1009416
02:00+7wsw5139328 0.0 1009434
05:00+8wsw6139169 0.1 1009587
08:00+10wsw61089100 0.2 1010745
11:00+11wsw6983100 0.0 1011869
14:00+14w697179 0.2 10111372
17:00+13w687885 1.4 10111314
20:00+11wsw49885 1.9 1012384
19 may, wed
wed1923:00+7sw410945 0.0 1013243
02:00+8wsw5119397 0.1 1014420
05:00+8wsw4996100 0.1 1014396
08:00+9wnw5893100 0.8 1016767
11:00+11wnw588291 4.3 1017970
14:00+15w675360 4.4 10162085
17:00+13w676918 0.6 10161110
20:00+10wsw378715 1.6 1017187
20 may, thu
thu2023:00+7sw37945 0.0 1017129
02:00+6sw48945 0.0 1017156
05:00+5sw3695100 0.0 1018121
08:00+9w458936 0.0 1019418
11:00+13wnw46615 0.1 10191505
14:00+15w674971 0.1 10192249
17:00+14wnw57565 0.0 10191548
20:00+11w22745 0.0 102029